星链-5435 (STARLINK-5435 )

导读

STARLINK-5435是美国太空探索技术公司(SpaceX)星链卫星互联网项目的组成卫星,于2022年12月17日发射升空,属于星链星座组网的第二代卫星之一,旨在为全球范围内用户提供低延迟、高速率的卫星互联网服务,目前该卫星已在近地轨道正常运行,参与星链星座的服务覆盖。

Basic Information
目录编号:
54797
目录名称:
STARLINK-5435
国际标识:
2022-175AR
轨道中心:
EARTH
卫星名称:
星链-5435
卫星全名:
星链-5435 (STARLINK-5435 )
卫星状态:
在轨 (已飞行1357 天)
发射日期:
2022-12-17 UTC
国别 :
美国 (US)
星等 :
--
Orbit Information
数据来源 国际轨道数据
星历时间: 2026-09-04T12:52:56+0800
4小时前
查看轨道信息
半长轴: 6840.887km
偏心率: 0.0001265
轨道倾角: 53.161°
近地点辐角 87.680°
升交点赤经 314.101°
平近点角 272.435°
近地点: 461.884km
远地点: 463.616km
周期: 93.849分钟
每日圈数: 15.343844
Detailed Information
固有亮度:
5
最大亮度:
2.5
卫星平台:
Starlink v1.5
覆盖范围:
全球
运营商:
太空探索技术公司
运营商所在国:
美国
制造商(研发单位):
太空探索技术公司
制造商所在国:
美国
使用方式:
暂无
Satellite Introduction
星链(Starlink)计划是由太空探索技术公司(SpaceX)提出的一个巨型低轨卫星互联网星座项目,计划在2019年至2024年间在太空搭建由约1.2万颗卫星组成的“星链”网络,其中1584颗将部署在地球上空550千米处的近地轨道,并从2020年开始工作。该卫星仍在工作。
2D Orbit Map
3D Orbit Map
Orbit Altitude Analysis Chart
Orbit Inclination Analysis Chart
Orbit Comprehensive Analysis Chart
View Comprehensive Chart
Conjunction Data List
Event ID Objects TCA Miss Dist (km) Collision Risk Probability Collision Risk Index (CRI) Action
CDM_260904-113305-479706-584721
2026-09-04T
11:33:23+0000
0.575 km
远距离
4.897873E-5 中风险 0.69
CDM_260904-091205-479706-584721
2026-09-04T
09:12:42+0000
0.872 km
远距离
1.287858E-5 中风险 0.57
CDM_260905-094805-363305-479721
2026-09-05T
09:48:51+0000
2.780 km
极远距离
1.324222E-6 低风险 0.37
CDM_260905-082605-110605-479721
2026-09-05T
08:26:52+0000
2.839 km
极远距离
1.155436E-6 低风险 0.36